Location: Colonia Mina de C?rbuni
(46.1667°N, 22.7167°E)
Time: 10:05:47
(UTC+00:00)

deb Explorer IX - Pass Details

Date: 20 April 2024
Orbit: 513 x 891 km, 38.7° (Epoch: 21 May)

Event Time Altitude Azimuth Distance (km) Brightness Sun altitude
Rises 12:05:43 0° 260° (W) 3,492 ? 49.9°
Reaches altitude 10° 12:08:24 10° 253° (WSW) 2,573 ? 49.6°
Maximum altitude 12:14:12 42° 185° (S) 1,270 ? 48.9°
Drops below altitude 10° 12:19:56 10° 117° (ESE) 2,542 ? 48.3°
Sets 12:22:34 0° 110° (ESE) 3,445 ? 47.9°
